Change the Weather History Date:

Thursday, May 8, 2014

  Actual Average Record
Temperature  
Mean Temperature 34 °F 46 °F  
Max Temperature 37 °F 58 °F 78 °F (1970)
Min Temperature 30 °F 34 °F 20 °F (1944)
Degree Days  
Heating Degree Days 31 19  
Month to date heating degree days 163 160  
Since 1 July heating degree days 7844 7810  
Cooling Degree Days 0 0  
Month to date cooling degree days 0 0  
Year to date cooling degree days 0 0  
Moisture  
Dew Point 31 °F    
Average Humidity 93    
Maximum Humidity 100    
Minimum Humidity 85    
Precipitation  
Precipitation 0.31 in 0.08 in 0.98 in (1993)
Month to date precipitation 0.96 0.75  
Year to date precipitation 5.56 4.74  
Sea Level Pressure  
Sea Level Pressure 29.86 in    
Wind  
Wind Speed 5 mph (NNW)    
Max Wind Speed 13 mph    
Max Gust Speed 19 mph    
Visibility 4 miles    
Events Fog , Rain , Snow    
T = Trace of Precipitation, MM = Missing Value Source: NWS Daily Summary

Daily Weather History Graph

Daily Weather History Graph

Search for Another Location

Airport or City:

Trip Planner

Search our weather history database for the weather conditions in past years. The results will help you decide how hot, cold, wet, or windy it might be!

Date:

Astronomy

May. 08, 2014 Rise Set
Actual Time 5:37 AM MDT 8:05 PM MDT
Civil Twilight 5:04 AM MDT 8:37 PM MDT
Nautical Twilight 4:24 AM MDT 9:18 PM MDT
Astronomical Twilight 3:39 AM MDT 10:04 PM MDT
Moon 1:56 PM MDT (5/8) 2:21 AM MDT (5/8)
Length of Visible Light 15h 32m
Length of Day
14h 28m
Waxing Gibbous, 65% of the Moon is Illuminated
May 8
Waxing Gibbous
May 14
Full
May 21
Last Quarter
May 28
New
Jun 5
First Quarter

Hourly Weather History & Observations

Time (MDT) Temp. Windchill Dew Point Humidity Pressure Visibility Wind Dir Wind Speed Gust Speed Precip Events Conditions
12:53 AM 32.0 °F 25.6 °F 30.0 °F 92% 29.80 in 10.0 mi NNE 6.9 mph - 0.00 in   Overcast
1:21 AM 32.0 °F 28.7 °F 30.2 °F 93% 29.84 in 5.0 mi SSW 3.5 mph - N/A Snow Light Snow
1:31 AM 32.0 °F 27.5 °F 30.0 °F 92% 29.85 in 2.5 mi WSW 4.6 mph - 0.02 in Snow Light Snow
1:40 AM 32.0 °F 24.8 °F 30.0 °F 92% 29.86 in 1.2 mi WNW 8.1 mph - 0.03 in Snow Light Snow
1:44 AM 32.0 °F 25.6 °F 28.9 °F 88% 29.87 in 0.8 mi NNW 6.9 mph - 0.03 in Snow Light Snow
1:53 AM 30.9 °F 26.2 °F 30.0 °F 96% 29.87 in 0.5 mi West 4.6 mph - 0.05 in Fog , Snow Snow
2:53 AM 30.9 °F 25.2 °F 30.0 °F 96% 29.83 in 1.0 mi North 5.8 mph - 0.12 in Snow Light Snow
3:12 AM 30.9 °F 25.2 °F 30.0 °F 96% 29.82 in 2.0 mi North 5.8 mph - 0.01 in Snow Light Snow
3:24 AM 30.9 °F 24.3 °F 28.9 °F 92% 29.81 in 4.0 mi NNE 6.9 mph - 0.02 in Snow Light Snow
3:31 AM 30.9 °F 25.2 °F 28.9 °F 92% 29.81 in 6.0 mi NNE 5.8 mph - 0.02 in Snow Light Snow
3:53 AM 30.9 °F 25.2 °F 28.9 °F 92% 29.82 in 10.0 mi North 5.8 mph - 0.02 in   Overcast
4:53 AM 30.9 °F 27.5 °F 28.0 °F 89% 29.82 in 6.0 mi North 3.5 mph - 0.00 in Snow Light Snow
5:05 AM 30.9 °F 25.2 °F 30.0 °F 96% 29.81 in 2.5 mi North 5.8 mph - 0.00 in Snow Light Snow
5:41 AM 30.0 °F 22.4 °F 28.0 °F 92% 29.81 in 3.0 mi NNW 8.1 mph - 0.00 in Snow Light Snow
5:53 AM 30.0 °F 23.2 °F 27.0 °F 88% 29.83 in 3.0 mi NNW 6.9 mph - 0.00 in Snow Light Snow
6:53 AM 30.9 °F 22.8 °F 27.0 °F 85% 29.84 in 10.0 mi North 9.2 mph 18.4 mph 0.00 in   Overcast
7:53 AM 30.9 °F 22.8 °F 27.0 °F 85% 29.85 in 10.0 mi North 9.2 mph - N/A   Overcast
8:19 AM 30.0 °F 21.7 °F 27.0 °F 88% 29.83 in 1.8 mi North 9.2 mph - 0.00 in Snow Light Snow
8:33 AM 30.0 °F 24.1 °F 26.1 °F 85% 29.83 in 1.5 mi North 5.8 mph - 0.01 in Snow Light Snow
8:53 AM 30.0 °F 21.7 °F 27.0 °F 88% 29.87 in 1.0 mi North 9.2 mph - 0.01 in Snow Light Snow
9:00 AM 30.0 °F 22.4 °F 27.0 °F 88% 29.83 in 0.8 mi North 8.1 mph - 0.00 in Snow Light Snow
9:16 AM 30.0 °F 21.7 °F 27.0 °F 88% 29.83 in 1.0 mi North 9.2 mph - 0.01 in Snow Light Snow
9:41 AM 30.0 °F 21.7 °F 26.1 °F 85% 29.83 in 2.0 mi North 9.2 mph - 0.02 in Snow Light Snow
9:53 AM 30.9 °F 23.5 °F 27.0 °F 85% 29.87 in 2.5 mi North 8.1 mph 18.4 mph 0.02 in Snow Light Snow
10:06 AM 30.9 °F 22.2 °F 27.0 °F 85% 29.83 in 4.0 mi North 10.4 mph - 0.00 in Snow Light Snow
10:49 AM 30.2 °F 21.9 °F 26.6 °F 86% 29.84 in 2.0 mi NNW 9.2 mph - 0.00 in Snow Light Snow
10:53 AM 30.9 °F 22.8 °F 26.1 °F 82% 29.90 in 2.0 mi NNW 9.2 mph - 0.00 in Snow Light Snow
11:18 AM 32.0 °F 24.8 °F 28.0 °F 85% 29.84 in 1.8 mi NW 8.1 mph - 0.00 in Snow Light Snow
12:22 PM 32.0 °F - 28.9 °F 88% 29.86 in 0.5 mi Calm Calm - 0.01 in Fog , Snow Light Snow
12:33 PM 32.0 °F - 30.0 °F 92% 29.86 in 0.5 mi Calm Calm - 0.02 in Fog , Snow Light Snow
12:53 PM 33.1 °F - 30.0 °F 89% 29.91 in 1.0 mi Calm Calm - 0.03 in Snow Light Snow
1:35 PM 34.0 °F - 30.0 °F 85% 29.86 in 1.2 mi Calm Calm - 0.01 in Snow Light Snow
1:53 PM 34.0 °F 29.8 °F 30.9 °F 89% 29.91 in 0.8 mi NNE 4.6 mph - 0.01 in Snow Light Snow
2:15 PM 35.1 °F - 32.0 °F 89% 29.86 in 1.0 mi Calm Calm - 0.01 in Snow Light Snow
2:34 PM 35.1 °F - 32.0 °F 89% 29.86 in 1.5 mi Calm Calm - 0.02 in Snow Light Snow
3:00 PM 36.0 °F - 33.1 °F 89% 29.86 in 3.0 mi Calm Calm - 0.00 in Snow Light Snow
3:16 PM 37.0 °F 34.5 °F 33.1 °F 86% 29.86 in 5.0 mi NNE 3.5 mph - 0.00 in Snow Light Snow
3:53 PM 37.0 °F - 33.1 °F 86% 29.89 in 9.0 mi Calm Calm - 0.00 in Rain Light Rain
4:44 PM 36.0 °F - 34.0 °F 93% 29.86 in 8.0 mi Calm Calm - 0.00 in   Overcast
4:53 PM 36.0 °F - 34.0 °F 93% 29.90 in 4.0 mi Calm Calm - 0.00 in Rain Light Rain
5:11 PM 37.0 °F - 34.0 °F 89% 29.87 in 7.0 mi Calm Calm - 0.01 in Rain Light Rain
5:19 PM 36.0 °F - 34.0 °F 93% 29.87 in 7.0 mi Calm Calm - 0.01 in Rain Light Rain
5:53 PM 37.0 °F 34.5 °F 34.0 °F 89% 29.91 in 10.0 mi SW 3.5 mph - 0.01 in   Overcast
6:00 PM 36.0 °F 33.3 °F 34.0 °F 93% 29.87 in 10.0 mi Variable 3.5 mph - N/A   Overcast
6:12 PM 37.0 °F - 34.0 °F 89% 29.87 in 10.0 mi Calm Calm - N/A   Overcast
6:39 PM 37.0 °F 34.5 °F 34.0 °F 89% 29.87 in 10.0 mi South 3.5 mph - N/A   Overcast
6:53 PM 37.0 °F - 35.1 °F 93% 29.91 in 10.0 mi Calm Calm - N/A   Overcast
7:06 PM 37.0 °F - 35.1 °F 93% 29.87 in 10.0 mi Calm Calm - N/A   Overcast
7:23 PM 36.0 °F 33.3 °F 35.1 °F 97% 29.87 in 10.0 mi South 3.5 mph - N/A   Overcast
7:50 PM 35.6 °F - 35.6 °F 100% 29.88 in 9.0 mi Calm Calm - N/A   Overcast
7:53 PM 36.0 °F 33.3 °F 35.1 °F 97% 29.92 in 1.5 mi Variable 3.5 mph - N/A   Overcast
7:58 PM 36.0 °F 32.1 °F 34.0 °F 93% 29.88 in 0.2 mi South 4.6 mph - N/A Fog Fog
8:08 PM 35.1 °F - 34.0 °F 96% 29.88 in 1.0 mi Calm Calm - N/A   Mist
8:15 PM 35.1 °F 32.2 °F 34.0 °F 96% 29.88 in 3.0 mi South 3.5 mph - N/A   Overcast
8:53 PM 35.1 °F 31.0 °F 34.0 °F 96% 29.93 in 3.0 mi East 4.6 mph - N/A   Overcast
8:56 PM 35.1 °F 31.0 °F 34.0 °F 96% 29.88 in 0.8 mi East 4.6 mph - N/A   Overcast
9:06 PM 35.1 °F 32.2 °F 34.0 °F 96% 29.87 in 0.2 mi ESE 3.5 mph - N/A Fog Fog
9:53 PM 34.0 °F - 33.1 °F 96% 29.93 in 0.2 mi Calm Calm - N/A Fog Fog
10:35 PM 33.1 °F 27.7 °F 32.0 °F 96% 29.88 in 0.5 mi WSW 5.8 mph - N/A Fog Fog
10:50 PM 33.8 °F 29.6 °F 32.0 °F 93% 29.88 in 2.0 mi SW 4.6 mph - N/A   Overcast
10:51 PM 33.1 °F 28.7 °F 32.0 °F 96% 29.94 in 2.5 mi WSW 4.6 mph - N/A   Overcast
11:03 PM 33.1 °F 28.7 °F 33.1 °F 100% 29.89 in 1.8 mi WSW 4.6 mph - N/A   Overcast
11:08 PM 34.0 °F 28.8 °F 33.1 °F 96% 29.88 in 3.0 mi Variable 5.8 mph - N/A   Overcast
11:53 PM 32.0 °F 26.4 °F 30.9 °F 96% 29.93 in 10.0 mi WSW 5.8 mph - N/A   Mostly Cloudy